Location: Bazugues
(43.4465°N, 0.3432°E)
Time: 14:24:31
(UTC+00:00)

NOSS 3-4 (A) - Pass Details

Date: 12 January 2026
Orbit: 769 x 1442 km, 63.4° (Epoch: 10 January)

Event Time Altitude Azimuth Distance (km) Brightness Sun altitude
Rises 17:30:04 0° 185° (S) 3,225 6.6 -8.3°
Reaches altitude 10° 17:32:39 10° 175° (S) 2,303 5.7 -8.7°
Maximum altitude 17:37:10 31° 114° (ESE) 1,366 4.0 -9.5°
Enters shadow 17:41:28 12° 57° (ENE) 2,284 4.8 -10.2°
